Temperature
18 18 18 18 18 18 18 18 18 18 18 18 18 18 18 18 18 18 18 18 18 18 18 18 18 18 18 18 18 18 18 18 18 18 18 18 18 18 18 18 18 18 18
18 18 17 17 17 17 18 18 18 18 18 18 18 18 18 18 18 18 17 18 18 18 18 18 18 18 18 18 18 18 18 18 18 18 18 18 18 18 18 18 18 18 18
18 18 17 17 17 17 17 17 17 17 17 17 17 17 17 17 17 17 17 17 17 17 17 17 17 17 17 18 18 18 18 18 18 18 18 18 18 18 18 18 18 18 18
17 17 17 17 17 17 17 17 17 17 17 17 17 17 17 17 17 17 17 17 17 17 17 17 17 17 17 17 17 17 17 17 17 18 18 18 18 18 18 18 18 18 18
17 17 17 17 17 17 17 17 17 17 17 17 16 17 17 16 16 17 17 17 17 17 17 17 17 17 17 17 17 17 17 17 17 17 17 17 17 17 17 17 17 17 18
17 17 17 17 17 17 17 17 16 16 16 16 16 16 16 16 16 16 16 16 16 16 16 17 17 17 17 17 17 17 17 17 17 17 17 17 17 17 17 17 17 17 17
17 17 17 17 17 17 16 16 16 16 16 16 16 16 16 16 16 16 16 16 16 16 16 16 16 16 16 17 17 17 17 17 17 17 17 17 17 17 17 17 17 17 17
17 17 17 16 17 17 16 16 16 16 16 16 16 16 16 16 16 16 16 16 16 16 16 16 16 16 16 16 16 17 17 17 17 17 17 17 17 17 17 17 17 17 17
17 17 17 17 16 16 16 16 16 16 16 16 16 16 16 15 15 15 15 15 15 16 16 16 16 16 16 16 16 16 16 17 17 17 16 16 17 17 17 17 17 17 17
17 17 17 16 16 16 16 16 16 16 16 16 15 15 15 15 15 15 15 15 15 15 16 16 16 16 16 16 16 16 16 16 16 16 16 16 16 16 17 17 17 17 17
16 16 16 16 16 16 16 16 16 16 16 16 16 16 16 16 15 15 15 15 15 15 16 16 16 16 16 16 16 16 16 16 16 16 16 16 16 16 16 16 17 17 17
17 16 16 16 16 16 16 16 16 16 16 16 16 16 16 16 16 16 15 15 16 16 16 16 16 16 16 16 16 16 16 16 16 16 16 16 16 16 16 16 17 17 17
17 17 16 16 16 16 16 16 16 16 16 16 16 16 16 16 16 16 16 16 16 16 16 16 16 16 16 16 16 16 16 16 16 16 16 16 16 16 16 16 16 16 16
17 17 17 16 16 16 16 16 16 16 16 16 16 16 16 16 16 16 16 16 16 16 16 16 16 16 16 16 16 16 16 16 16 16 16 15 16 16 16 16 16 16 16
17 17 17 17 17 16 16 16 16 16 16 16 16 16 16 16 16 16 16 16 16 16 16 16 16 16 16 16 15 15 15 15 15 15 15 15 16 16 16 16 16 16 16
17 17 17 17 17 17 16 16 16 16 16 16 16 16 16 16 16 16 16 16 16 16 16 16 15 16 15 15 15 15 15 15 15 15 15 15 15 15 15 15 16 16 16
18 17 17 17 17 17 16 16 16 16 16 16 16 16 16 16 16 16 16 15 15 15 15 15 15 15 15 15 15 15 15 15 15 15 15 15 15 15 15 15 15 16 16
18 17 17 17 17 17 16 16 16 16 16 16 16 16 16 15 15 15 15 15 15 15 15 15 15 15 15 15 15 15 15 15 15 15 15 15 15 15 15 15 15 15 16
18 17 17 17 17 17 16 16 16 16 16 16 16 16 16 15 15 15 15 15 15 15 15 15 15 15 15 15 15 15 15 15 15 15 15 15 15 15 15 15 15 15 15
17 17 17 17 17 17 16 16 16 16 16 16 16 15 15 15 15 15 15 15 15 15 15 15 15 15 15 15 15 15 15 14 14 14 14 14 14 15 15 15 15 15 15
17 17 17 17 17 16 16 16 16 16 15 15 15 15 15 15 15 15 15 15 15 15 15 15 15 15 15 15 15 15 14 14 14 14 14 14 14 14 14 15 15 15 15
18 17 17 17 17 16 16 16 16 16 15 15 15 15 15 15 15 15 15 15 15 15 15 15 15 15 15 15 15 15 14 14 14 14 14 14 14 14 14 14 14 15 15
18 17 17 17 17 16 16 16 16 15 15 15 15 15 15 15 15 15 15 15 15 15 15 15 15 15 15 15 15 15 15 14 14 14 14 14 14 14 14 14 14 14 15
18 17 17 17 17 16 16 16 16 16 15 15 15 15 15 15 15 15 15 15 15 15 15 15 15 15 15 15 15 15 15 15 14 14 14 14 14 14 14 14 14 14 14
18 18 17 17 17 16 16 16 16 15 15 15 15 15 15 15 15 15 15 15 15 15 15 15 15 15 15 15 15 15 15 15 15 14 14 14 14 13 14 14 14 14 14
18 18 17 17 17 16 16 16 16 15 15 15 15 15 15 15 15 15 15 15 15 15 15 15 15 15 15 15 15 15 15 15 15 15 14 14 13 13 13 13 14 14 14
Wind_Speed
1 1 3 5 6 8 9 9 10 10 10 11 11 11 12 12 11 11 11 11 11 10 10 10 10 10 9 9 9 8 8 8 7 7 7 7 7 6 5 5 5 4 4
2 1 5 6 7 8 8 9 9 10 10 10 10 10 11 11 11 10 10 10 10 10 10 10 9 9 9 9 8 8 8 8 7 7 8 7 7 6 5 5 5 4 4
3 4 6 7 8 8 8 9 9 9 10 10 9 9 9 10 10 10 9 10 9 9 9 9 9 9 8 8 8 8 7 7 7 7 7 7 6 6 5 5 5 5 4
4 5 6 8 8 8 8 8 8 9 9 9 9 9 9 9 9 9 9 9 8 8 8 8 8 8 8 8 8 7 7 7 7 7 7 6 5 6 6 5 5 5 5
5 5 6 8 8 8 8 8 8 9 9 9 9 8 8 8 8 8 8 8 7 7 7 7 7 7 8 8 8 7 7 7 8 7 6 6 5 6 6 6 6 6 5
4 5 6 8 8 8 8 8 8 8 9 9 8 8 8 8 7 8 8 8 7 6 6 6 6 7 7 7 8 8 8 8 7 7 6 5 5 6 7 7 6 6 6
4 4 5 7 8 8 8 8 8 8 8 8 8 8 8 7 7 8 7 7 7 6 6 6 6 7 7 7 7 7 8 8 7 6 6 5 5 6 7 7 7 7 7
4 4 5 6 7 7 7 7 7 8 8 7 7 7 7 7 7 7 7 7 7 6 6 6 6 7 6 6 6 6 7 7 6 6 5 5 5 7 7 8 7 7 6
4 4 5 5 6 6 6 6 7 7 7 6 6 6 6 6 7 6 6 6 6 6 6 5 6 6 6 6 6 7 8 8 7 6 5 5 5 7 7 8 8 7 7
3 3 4 5 6 5 5 5 5 6 5 5 5 5 6 6 6 5 5 5 5 5 5 5 6 7 7 7 7 8 9 8 7 6 5 5 6 7 7 8 8 8 9
2 2 2 3 4 4 4 5 5 5 6 6 5 5 5 5 5 5 4 5 5 6 6 6 7 8 8 8 8 9 9 7 7 6 6 5 7 7 8 8 9 9 9
2 1 1 1 2 3 3 4 5 5 5 5 4 4 4 4 4 4 5 6 7 7 8 8 9 9 9 9 9 9 8 8 7 6 6 7 8 8 8 9 9 9 10
3 2 2 1 1 1 2 3 3 4 4 4 3 3 3 4 5 5 6 6 7 8 8 8 9 9 8 8 8 8 9 8 8 7 8 9 9 9 9 10 10 10 11
3 3 2 2 1 1 0 1 2 2 2 2 2 2 3 3 3 4 4 5 6 6 6 7 7 8 9 9 8 8 9 8 8 8 10 11 11 11 11 11 12 12 12
3 3 3 3 2 2 1 1 1 1 1 1 1 2 3 2 2 3 3 5 5 6 5 5 6 7 7 7 8 8 8 8 9 9 10 14 14 14 13 13 13 14 14
4 3 2 3 3 3 2 1 1 1 2 3 2 2 3 3 3 3 3 4 5 5 6 6 6 5 5 6 7 8 8 8 9 10 10 12 14 15 15 15 15 15 15
4 3 3 3 3 3 3 2 2 3 3 3 3 4 5 5 5 4 3 3 4 5 7 7 7 7 5 6 7 7 7 8 9 9 10 11 12 14 15 16 16 16 16
4 4 3 3 5 4 4 3 4 4 4 4 4 5 6 6 7 5 3 3 4 6 6 5 4 5 6 6 6 5 5 7 8 9 10 11 11 11 13 15 16 16 17
6 5 4 4 5 5 5 5 5 5 5 5 6 6 6 7 7 6 4 4 5 5 4 4 4 4 5 5 6 6 6 5 6 8 8 10 11 11 12 13 15 16 17
5 5 5 5 5 5 5 4 4 5 4 6 6 6 7 7 7 7 5 5 5 4 4 4 5 5 4 4 7 7 6 5 6 7 7 8 10 11 12 13 13 13 16
6 6 5 5 5 5 3 3 3 2 2 3 4 6 6 6 6 6 5 4 4 4 4 5 4 6 4 3 4 4 5 6 7 6 6 6 7 9 11 12 12 12 12
7 6 5 5 5 4 3 3 3 3 2 2 3 5 6 6 5 5 5 3 3 4 5 4 4 3 3 3 3 3 3 4 5 6 5 5 6 8 9 11 12 12 12
8 8 7 6 6 5 5 4 4 4 4 3 3 3 4 5 5 5 5 5 4 3 4 3 4 4 3 2 3 3 3 2 1 4 5 5 5 5 6 8 11 12 12
9 7 7 6 6 5 5 5 5 4 2 1 1 1 3 5 5 5 5 5 4 3 3 3 3 3 4 2 2 3 2 3 3 1 3 4 5 5 5 6 8 10 11
8 8 7 6 5 5 5 6 6 4 2 1 2 3 3 4 5 5 5 5 4 3 3 3 3 3 2 3 2 2 3 3 3 3 1 2 3 3 4 5 6 8 10
7 7 7 7 5 5 5 5 6 6 5 4 2 2 2 2 3 4 5 5 4 3 3 3 3 3 2 3 2 2 2 2 2 3 2 1 1 2 3 4 5 7 8
Wind_Direction
263 276 147 130 129 124 120 116 116 114 112 110 106 103 101 99 99 99 98 95 90 86 85 84 83 82 80 77 76 78 77 74 73 67 63 64 66 68 71 74 80 81 88
157 130 124 123 121 119 117 117 117 115 115 112 107 103 102 101 100 97 95 93 89 86 83 81 79 78 76 73 72 75 72 68 68 64 57 52 55 60 67 75 78 85 81
101 98 110 113 115 116 116 119 117 113 111 110 109 106 104 102 101 99 94 90 88 84 80 79 76 74 72 71 71 72 69 65 65 60 49 39 41 52 56 66 68 73 72
96 92 108 113 114 114 113 113 113 110 109 108 107 105 104 102 101 99 94 90 86 82 78 76 73 71 69 69 68 69 65 63 63 58 45 34 33 48 51 58 61 65 60
90 89 108 111 114 117 118 116 113 108 107 106 103 103 103 101 101 98 93 90 85 81 76 72 68 67 65 65 63 66 68 68 67 57 44 35 31 46 54 56 57 58 55
91 94 108 111 114 118 119 117 114 112 107 102 99 97 100 99 95 93 89 85 80 77 72 65 62 62 62 63 62 67 70 73 66 53 46 38 36 46 54 56 54 49 46
96 88 106 113 113 113 112 111 111 109 107 101 96 92 95 95 90 88 84 81 78 77 71 65 60 61 61 63 67 74 75 77 68 53 44 38 41 50 53 50 48 46 40
94 76 82 99 103 104 108 112 111 108 106 102 96 91 88 88 86 84 81 77 73 72 70 67 62 60 60 64 70 77 79 78 66 49 42 37 46 54 51 45 40 38 36
84 72 59 68 78 86 94 100 107 105 101 98 93 87 84 81 77 75 70 66 65 62 63 64 61 59 59 64 70 79 81 77 62 44 46 42 51 54 50 43 36 33 33
78 68 55 55 61 54 52 85 101 99 93 86 80 73 68 63 59 58 54 52 54 58 59 60 64 61 65 67 73 80 78 71 60 48 41 47 53 55 51 43 38 37 34
92 59 61 52 54 43 34 53 58 63 60 57 51 48 45 37 33 32 37 46 49 46 47 53 60 65 66 66 73 78 73 67 61 48 40 51 57 54 53 47 42 38 35
194 218 134 71 54 36 30 43 42 42 40 42 40 35 37 34 27 25 24 35 40 42 47 54 61 66 66 62 65 70 68 64 56 42 37 49 56 54 51 48 43 39 36
201 208 182 169 109 64 23 35 42 34 26 29 32 35 41 39 36 35 32 34 39 45 48 53 60 64 68 70 68 68 66 60 49 40 39 48 53 54 51 49 46 41 38
187 213 194 169 149 149 76 32 44 38 19 18 20 51 66 55 46 43 41 41 49 52 55 56 64 69 71 74 78 76 68 60 50 43 42 48 51 50 49 49 47 43 40
193 217 206 170 167 165 127 63 74 57 45 41 58 73 91 86 68 59 52 59 59 61 64 65 68 69 68 70 76 77 69 61 55 50 41 47 49 47 47 48 46 44 42
193 208 183 162 161 144 118 91 85 85 86 84 75 86 109 106 97 84 69 65 63 68 76 74 74 71 67 70 67 67 66 63 57 53 46 42 45 47 46 46 45 43 42
180 171 163 160 135 132 124 113 99 85 89 84 78 93 108 110 105 96 83 69 65 80 85 80 73 70 68 67 61 57 60 60 58 52 48 42 39 41 43 45 44 42 41
160 152 162 153 130 125 118 106 90 80 82 72 76 88 99 105 107 102 93 78 84 89 87 82 71 71 64 64 60 49 50 53 53 52 50 46 41 38 37 42 43 41 41
162 154 141 124 124 122 109 93 83 75 70 69 76 79 88 96 105 104 96 92 98 89 81 90 75 83 82 78 73 55 45 45 39 46 45 46 44 41 38 37 39 39 39
151 138 128 117 118 115 99 85 72 61 50 57 63 72 86 93 101 100 93 88 94 90 78 82 87 74 78 83 81 64 48 43 42 38 36 40 43 41 41 41 37 34 36
141 138 140 135 136 127 111 104 96 78 48 44 50 67 80 89 98 98 95 86 89 93 97 100 97 86 70 71 84 62 39 40 47 35 30 37 38 39 44 42 37 34 31
157 158 149 152 150 145 131 119 116 111 80 57 45 54 62 78 91 103 100 96 94 98 96 99 106 102 71 44 100 95 50 18 21 27 25 35 33 37 39 39 37 33 31
171 172 168 165 156 146 131 110 89 67 52 40 34 29 28 61 84 97 106 107 102 105 114 114 118 118 117 48 56 125 130 168 359 4 20 29 27 33 26 30 33 29 29
180 171 161 161 155 146 139 134 132 124 118 117 67 41 36 55 72 88 102 106 103 98 109 118 110 115 127 120 63 56 104 141 135 54 360 11 26 33 22 25 23 25 29
172 166 157 155 153 150 147 145 135 125 127 110 80 74 53 42 56 74 94 98 99 100 104 102 104 108 122 139 137 118 90 73 91 129 98 356 12 13 13 16 20 21 25
162 157 150 153 158 156 151 150 147 144 141 126 106 91 62 45 40 57 82 87 92 97 102 107 106 109 116 122 128 135 144 138 142 130 138 129 15 343 359 8 17 16 21
Height
1526 1526 1527 1528 1528 1529 1529 1530 1530 1531 1531 1532 1533 1533 1533 1534 1534 1535 1535 1535 1536 1536 1536 1537 1537 1537 1537 1538 1538 1538 1538 1538 1538 1538 1538 1538 1537 1537 1537 1537 1537 1537 1538
1526 1527 1527 1528 1529 1529 1530 1530 1531 1531 1532 1533 1533 1533 1534 1534 1535 1535 1536 1536 1537 1537 1537 1538 1538 1538 1538 1538 1539 1539 1539 1539 1539 1539 1538 1538 1538 1538 1538 1537 1538 1538 1538
1527 1527 1528 1528 1529 1530 1530 1531 1531 1532 1532 1533 1533 1534 1534 1535 1536 1536 1537 1537 1538 1538 1538 1539 1539 1539 1539 1539 1540 1539 1540 1540 1539 1540 1539 1539 1539 1539 1538 1538 1538 1538 1538
1528 1528 1528 1529 1530 1530 1531 1532 1532 1533 1533 1533 1534 1535 1535 1536 1536 1537 1537 1538 1538 1539 1539 1539 1540 1540 1540 1540 1540 1540 1541 1541 1540 1540 1540 1540 1540 1539 1539 1539 1539 1539 1539
1528 1529 1529 1530 1530 1531 1532 1532 1533 1533 1534 1534 1535 1535 1536 1536 1536 1537 1538 1538 1539 1539 1539 1540 1540 1540 1541 1541 1541 1541 1541 1542 1542 1541 1541 1541 1541 1540 1540 1540 1539 1539 1539
1530 1530 1530 1531 1531 1532 1533 1533 1534 1534 1534 1535 1536 1536 1536 1536 1537 1537 1538 1538 1539 1539 1540 1540 1540 1541 1541 1541 1542 1542 1542 1543 1543 1542 1542 1542 1542 1541 1541 1540 1540 1540 1539
1531 1531 1532 1532 1533 1533 1534 1534 1535 1535 1536 1536 1537 1537 1537 1537 1538 1538 1538 1539 1539 1540 1540 1540 1541 1541 1542 1542 1543 1543 1543 1543 1544 1543 1543 1543 1543 1542 1542 1541 1541 1540 1539
1533 1533 1533 1533 1534 1534 1535 1535 1536 1536 1537 1537 1538 1538 1539 1539 1539 1539 1539 1540 1540 1540 1541 1541 1542 1542 1543 1543 1543 1544 1544 1544 1545 1544 1544 1544 1544 1543 1542 1542 1541 1541 1540
1535 1535 1535 1535 1536 1536 1537 1537 1538 1538 1538 1539 1539 1540 1540 1540 1540 1541 1541 1541 1541 1542 1542 1542 1543 1543 1544 1544 1545 1545 1545 1545 1545 1545 1545 1545 1545 1544 1543 1542 1542 1541 1540
1536 1537 1537 1537 1538 1538 1538 1539 1539 1540 1540 1540 1541 1542 1542 1542 1542 1543 1543 1543 1543 1543 1544 1544 1544 1544 1545 1545 1546 1546 1546 1546 1546 1546 1546 1546 1545 1545 1544 1543 1542 1541 1540
1538 1538 1539 1539 1540 1540 1540 1540 1541 1541 1542 1542 1543 1543 1544 1544 1544 1544 1545 1545 1545 1545 1545 1546 1546 1546 1546 1546 1547 1547 1548 1547 1547 1547 1547 1547 1546 1546 1545 1544 1543 1542 1541
1539 1540 1540 1541 1542 1542 1542 1542 1543 1543 1544 1544 1545 1545 1545 1546 1546 1546 1546 1547 1547 1547 1547 1547 1547 1547 1548 1548 1548 1549 1549 1549 1549 1548 1548 1548 1547 1547 1546 1545 1544 1543 1541
1540 1541 1542 1543 1543 1544 1544 1544 1545 1545 1546 1546 1547 1547 1547 1547 1548 1548 1548 1548 1548 1549 1549 1549 1549 1549 1549 1549 1550 1550 1550 1550 1550 1550 1549 1549 1548 1548 1547 1546 1545 1544 1542
1541 1542 1543 1544 1545 1545 1546 1546 1546 1547 1547 1548 1548 1548 1548 1549 1549 1549 1550 1550 1550 1550 1550 1550 1550 1551 1551 1551 1552 1552 1552 1552 1551 1551 1551 1551 1550 1549 1548 1547 1546 1545 1543
1542 1543 1544 1545 1546 1546 1547 1547 1548 1548 1549 1549 1549 1549 1550 1550 1550 1551 1551 1551 1551 1551 1551 1552 1552 1552 1553 1553 1553 1554 1554 1553 1553 1553 1553 1552 1552 1551 1550 1549 1548 1546 1545
1542 1543 1545 1546 1547 1547 1548 1548 1549 1550 1550 1550 1550 1551 1551 1551 1552 1552 1552 1553 1553 1553 1553 1553 1554 1554 1554 1555 1555 1555 1555 1555 1555 1555 1555 1554 1553 1553 1552 1551 1549 1548 1546
1543 1544 1545 1546 1547 1548 1549 1549 1550 1551 1551 1551 1551 1552 1552 1552 1553 1553 1554 1554 1554 1555 1555 1555 1555 1556 1556 1557 1557 1557 1557 1557 1557 1557 1556 1556 1555 1554 1553 1552 1551 1549 1548
1543 1545 1546 1547 1548 1549 1550 1551 1551 1552 1552 1552 1553 1553 1553 1554 1554 1554 1555 1555 1556 1556 1556 1556 1557 1557 1558 1558 1559 1559 1559 1559 1559 1559 1558 1558 1557 1556 1555 1554 1552 1551 1550
1544 1545 1546 1547 1548 1549 1550 1551 1552 1553 1553 1553 1554 1554 1554 1555 1555 1556 1556 1556 1557 1557 1557 1558 1558 1559 1559 1560 1560 1560 1560 1561 1561 1560 1560 1559 1558 1558 1557 1555 1554 1553 1551
1544 1545 1546 1548 1549 1550 1551 1552 1553 1554 1554 1554 1555 1555 1556 1556 1556 1557 1557 1557 1558 1558 1558 1559 1560 1560 1561 1561 1561 1562 1562 1562 1562 1562 1561 1561 1560 1559 1558 1557 1555 1554 1553
1543 1545 1547 1548 1549 1551 1552 1552 1553 1554 1555 1555 1556 1556 1556 1557 1557 1557 1558 1558 1558 1559 1559 1560 1560 1561 1562 1562 1563 1563 1563 1564 1564 1563 1563 1562 1562 1561 1560 1559 1557 1556 1554
1543 1545 1547 1548 1550 1551 1552 1553 1554 1555 1555 1556 1557 1557 1557 1558 1558 1558 1558 1559 1559 1559 1560 1561 1561 1562 1563 1563 1564 1564 1565 1566 1565 1565 1564 1564 1563 1563 1562 1560 1559 1558 1556
1542 1544 1546 1548 1550 1551 1552 1554 1554 1555 1556 1557 1557 1558 1558 1559 1559 1559 1559 1559 1560 1560 1561 1561 1562 1563 1563 1564 1564 1565 1565 1566 1566 1567 1566 1565 1565 1564 1563 1562 1561 1560 1558
1541 1544 1546 1548 1550 1551 1552 1554 1555 1555 1556 1557 1558 1558 1559 1559 1560 1560 1560 1560 1560 1561 1561 1562 1562 1563 1564 1564 1565 1565 1566 1566 1566 1567 1568 1567 1566 1565 1565 1564 1563 1561 1560
1540 1543 1546 1548 1550 1551 1553 1554 1555 1556 1557 1557 1558 1559 1559 1560 1560 1561 1561 1561 1561 1562 1562 1562 1563 1564 1564 1565 1565 1565 1566 1566 1566 1567 1567 1568 1568 1567 1566 1565 1564 1563 1562
1539 1542 1545 1547 1549 1551 1553 1554 1555 1556 1557 1558 1559 1559 1560 1560 1561 1561 1562 1562 1562 1562 1563 1563 1563 1564 1564 1565 1565 1566 1566 1566 1566 1567 1567 1568 1568 1568 1568 1567 1566 1565 1564